Flag for Brazil Weather past 2 weeks in Rio de Janeiro, Rio de Janeiro, Brazil

Now
81 °F

Partly sunny.


Feels Like: 85 °F
Forecast: 75 / 81 °F
Wind: 9 mph from South

Location: Rio De Janeiro Airport

Current Time: Apr 1, 2015 at 3:37:26 PM

Latest Report: Apr 1, 2015 at 3:00 PM


Visibility: N/A

Pressure: 29.92 "Hg

Humidity: 74%

Dew point: 72 °F

Location of Rio de JaneiroLocation

Historic Weather in Rio de Janeiro — Graph

°F

Rio de Janeiro temperature yesterday

Maximum temperature yesterday: 88 °F (at 2:00 PM)
Minimum temperature yesterday: 79 °F (at 6:00 AM)
Average temperature yesterday: 83 °F

Past Weeks' High & Low Weather Summary

 TemperatureHumidityPressure
High88 °F (Mar 31, 2:00 PM)100% (Mar 22, 2:00 PM)30.12 "Hg (Mar 22, 2:00 PM)
Low37 °F (Mar 22, 8:00 PM)58% (Mar 26, 12:00 PM)29.77 "Hg (Mar 21, 4:00 PM)
Average79 °F82%29.95 "Hg
* Reported Mar 17 2:00 PM — Apr 1 2:00 PM, Rio de Janeiro, Weather by CustomWeather, © 2015

Note: Actual official high and low records may vary slightly from our data, if they occured in-between our weather recording intervals... More about our weather records

Advertising

Rio de Janeiro weather history for previous 24 hours

 ConditionsComfort  
Time TempWeatherWind HumidityBarometerVisibility
2:00 PM
Wed, Apr 1
82 °FPartly sunny.9 mph70%29.95 "HgN/A
1:00 PM82 °FPartly sunny.10 mph66%29.95 "HgN/A
12:00 PM81 °FPartly sunny.12 mph70%29.95 "Hg6 mi
11:00 AM79 °FBroken clouds.5 mph89%29.98 "HgN/A
10:00 AM79 °FBroken clouds.5 mph89%29.98 "Hg6 mi
9:00 AM79 °FBroken clouds.3 mph84%29.98 "Hg5 mi
8:00 AM79 °FBroken clouds.3 mph89%29.95 "Hg5 mi
7:00 AM79 °FPartly sunny.3 mph84%29.92 "Hg5 mi
6:00 AM79 °FBroken clouds.2 mph89%29.92 "Hg4 mi
11:00 PM
Tue, Mar 31
81 °FPassing clouds.3 mph84%29.92 "HgN/A
10:00 PM82 °FPassing clouds.1 mph74%29.92 "HgN/A
9:00 PM82 °FPassing clouds.1 mph70%29.92 "HgN/A
8:00 PM82 °FPassing clouds.7 mph66%29.89 "HgN/A
7:00 PM82 °FPassing clouds.9 mph70%29.86 "HgN/A
6:00 PM82 °FPassing clouds.8 mph74%29.86 "HgN/A
5:00 PM84 °FPassing clouds.12 mph70%29.86 "HgN/A
4:00 PM86 °FPartly sunny.12 mph62%29.83 "HgN/A
3:00 PM88 °FPartly sunny.10 mph59%29.83 "HgN/A
Weather by CustomWeather, © 2015

See weather overviewHow to use our weather pages